FW8285 Weather Reports


Display with metric or nautical units.
time (UTC)temp
F
wind
direction
speed
MPH
gust
MPH
rain 1hr
in
rain 24hr
in
rain mn
in
humidity
%
barometer
mb
20260901084543 65 0 0.0 0.0 0.02 0.02 0.02 98 1015.2
20260901083050 65 0 0.0 0.0 0.00 0.00 0.00 98 1015.4
20260901081549 65 0 0.0 0.0 0.00 0.00 0.00 98 1015.5
20260901080105 65 0 0.0 0.0 0.00 0.00 0.00 98 1015.7
20260901074544 65 0 0.0 0.0 0.00 0.00 0.00 98 1015.7
20260901073051 65 0 0.0 0.0 0.00 0.00 0.00 97 1015.9
20260901071552 65 0 0.0 0.0 0.00 0.00 0.00 97 1016.0
20260901070059 65 0 0.0 0.0 0.00 0.00 0.00 97 1016.2
20260901064551 65 0 0.0 0.0 0.00 0.00 0.00 97 1016.1
20260901063110 65 0 0.0 0.0 0.00 0.00 0.00 97 1016.2
20260901061548 65 0 0.0 0.0 0.00 0.00 0.00 97 1016.3
20260901060048 65 0 0.0 0.0 0.00 0.00 0.00 97 1016.4
20260901054555 65 0 0.0 0.0 0.00 0.00 0.00 97 1016.8
20260901053100 65 0 0.0 0.0 0.00 0.00 0.00 97 1016.8
20260901051552 65 0 0.0 0.0 0.00 0.00 0.00 97 1017.0
20260901050048 65 0 0.0 0.0 0.00 0.00 0.00 97 1016.9
20260901044543 65 0 0.0 0.0 0.00 0.00 0.00 97 1017.1
20260901043051 65 0 0.0 0.0 0.00 0.00 0.00 97 1017.2
20260901041547 65 0 0.0 0.0 0.00 0.00 0.00 97 1017.1
20260901040049 65 0 0.0 0.0 0.00 0.00 0.00 97 1017.2
20260901034553 65 0 0.0 2.0 0.00 0.00 0.00 97 1017.1
20260901033050 65 0 0.0 0.0 0.00 0.00 0.00 97 1017.1
20260901031552 65 0 0.0 0.0 0.00 0.00 0.00 97 1017.4
20260901030049 65 0 0.0 0.0 0.00 0.00 0.00 97 1017.2
20260901024550 65 0 0.0 0.0 0.00 0.00 0.00 97 1017.4
20260901023052 65 0 0.0 0.0 0.00 0.00 0.00 97 1017.6
20260901021554 65 0 0.0 0.0 0.00 0.00 0.00 96 1017.7
20260901020049 65 0 0.0 0.0 0.00 0.00 0.00 96 1017.8
20260901014554 65 0 0.0 0.0 0.00 0.00 0.00 96 1017.7
20260901013100 65 0 0.0 0.0 0.00 0.00 0.00 96 1017.8
20260901011551 65 0 0.0 0.0 0.00 0.00 0.00 96 1017.6
20260901010057 65 0 0.0 0.0 0.00 0.00 0.00 96 1017.6
20260901004558 66 0 0.0 0.0 0.00 0.00 0.00 95 1017.5
20260901003055 66 0 0.0 0.0 0.00 0.00 0.00 95 1017.6
20260901001548 66 0 0.0 0.0 0.00 0.00 0.00 95 1017.6
20260901000049 66 0 0.0 0.0 0.00 0.00 0.00 95 1017.7
20260831234553 66 0 0.0 0.0 0.00 0.00 0.00 94 1017.8
20260831233049 66 0 0.0 0.0 0.00 0.00 0.00 94 1018.0
20260831231554 66 0 0.0 0.0 0.00 0.00 0.00 94 1017.9
20260831230045 66 0 0.0 0.0 0.00 0.00 0.00 94 1018.0
20260831224549 66 0 0.0 0.0 0.00 0.00 0.00 94 1018.2
20260831223047 66 0 0.0 0.0 0.00 0.00 0.00 94 1018.3
20260831221546 66 0 0.0 0.0 0.00 0.00 0.00 93 1018.5
20260831220053 66 0 0.0 2.0 0.00 0.00 0.00 93 1018.4
20260831214548 66 0 0.0 3.0 0.00 0.00 0.00 93 1018.4
20260831213048 66 0 0.0 5.0 0.00 0.00 0.00 93 1018.4
20260831211548 67 15 0.0 4.0 0.00 0.00 0.00 92 1018.4
20260831210051 68 0 0.0 0.0 0.00 0.00 0.00 90 1018.5
20260831204548 69 283 1.0 3.0 0.00 0.00 0.00 89 1018.6
20260831203049 71 0 0.0 0.0 0.00 0.00 0.00 86 1018.3
20260831201559 72 0 0.0 0.0 0.00 0.00 0.00 81 1018.3
20260831200052 73 0 0.0 1.0 0.00 0.00 0.00 79 1018.3
20260831194634 74 186 0.0 4.0 0.00 0.00 0.00 78 1018.3
20260831193044 75 0 0.0 2.0 0.00 0.00 0.00 77 1018.2
20260831191551 75 130 0.0 3.0 0.00 0.00 0.00 77 1018.6
20260831190059 76 153 0.0 2.0 0.00 0.00 0.00 75 1018.7
20260831184556 74 0 0.0 3.0 0.00 0.00 0.00 79 1019.0
20260831183044 74 138 0.0 3.0 0.00 0.00 0.00 79 1019.2
20260831181549 75 0 1.0 5.0 0.00 0.00 0.00 75 1019.3
20260831180046 75 0 1.0 6.0 0.00 0.00 0.00 74 1019.4
20260831174555 75 157 1.0 5.0 0.00 0.00 0.00 76 1019.4
20260831173048 74 144 0.0 7.0 0.00 0.00 0.00 80 1019.6
20260831171547 73 134 1.0 6.0 0.00 0.00 0.00 79 1019.6
20260831170050 73 142 1.0 3.0 0.00 0.00 0.00 80 1019.6
20260831164548 72 190 1.0 4.0 0.00 0.00 0.00 79 1019.7
20260831163047 72 209 1.0 4.0 0.00 0.00 0.00 79 1020.2
20260831161556 72 134 2.0 5.0 0.00 0.00 0.00 79 1020.2
20260831160050 72 0 0.0 4.0 0.00 0.00 0.00 79 1020.3
20260831154615 73 153 0.0 4.0 0.00 0.00 0.00 77 1020.3
20260831153046 72 184 2.0 6.0 0.00 0.00 0.00 77 1020.5
20260831151555 71 42 0.0 4.0 0.00 0.00 0.00 82 1020.5
20260831150050 69 141 0.0 3.0 0.00 0.00 0.00 86 1020.6
20260831144612 68 0 0.0 3.0 0.00 0.00 0.00 87 1020.5
20260831143052 67 213 0.0 3.0 0.00 0.00 0.00 91 1020.6
20260831141545 66 0 0.0 2.0 0.00 0.00 0.00 95 1020.6
20260831140045 65 149 0.0 2.0 0.00 0.00 0.00 97 1020.6
20260831134548 64 0 0.0 2.0 0.00 0.00 0.00 97 1020.5
20260831133050 64 0 0.0 2.0 0.00 0.00 0.00 99 1020.6
20260831131544 63 37 0.0 2.0 0.00 0.00 0.00 99 1020.6
20260831130053 63 0 0.0 3.0 0.00 0.00 0.00 99 1020.6
20260831124555 62 0 1.0 3.0 0.00 0.00 0.00 99 1020.7
20260831123054 62 29 0.0 2.0 0.00 0.00 0.00 99 1020.8
20260831121545 62 0 0.0 1.0 0.00 0.00 0.00 99 1020.8
20260831120054 62 0 0.0 3.0 0.00 0.00 0.00 99 1020.6
20260831114555 62 0 1.0 2.0 0.00 0.00 0.00 99 1020.6
20260831113045 61 0 0.0 3.0 0.00 0.00 0.00 99 1020.4
20260831111556 61 0 0.0 0.0 0.00 0.00 0.00 99 1020.5
20260831110052 61 0 0.0 1.0 0.00 0.00 0.00 99 1020.2
20260831104548 61 0 0.0 2.0 0.00 0.00 0.00 99 1019.9
20260831103045 61 0 0.0 1.0 0.00 0.00 0.00 99 1019.8
20260831101552 61 0 0.0 0.0 0.00 0.00 0.00 99 1019.8
20260831100114 61 0 0.0 0.0 0.00 0.00 0.00 99 1019.7
20260831094547 61 0 0.0 0.0 0.00 0.00 0.00 99 1019.6
20260831093045 61 0 0.0 0.0 0.00 0.00 0.00 99 1019.3
20260831091553 61 0 0.0 0.0 0.00 0.00 0.00 98 1019.4
20260831090049 61 0 0.0 0.0 0.00 0.00 0.00 98 1019.1